Location: Asheville, NC
(35.6000°N, 82.5500°W)
Time: 18:58:03
(UTC-04:00)

Vanguard 1 Rocket - Pass Details

Date: 15 December 2017
Orbit: 654 x 4223 km, 34.3° (Epoch: 22 April)

Event Time Altitude Azimuth Distance (km) Brightness Sun altitude
Rises 22:14:05 0° 284° (WNW) 6,070 12.1 -59.0°
Reaches altitude 10° 22:17:27 10° 281° (WNW) 5,436 11.7 -59.7°
Enters shadow 22:30:00 53° 248° (WSW) 4,079 10.4 -62.1°
